SCP
2 2 2 2 2 2 2 2 1 1 1 1 1 1 1 1 1 2 2 1 0 0 1 1 1 1 1 1 1 1 1 1 1 1 1 1 1 1 1 1 1 1 1
2 2 2 2 2 2 2 2 1 1 1 1 1 1 1 1 1 1 1 1 0 0 0 1 1 1 1 1 1 1 1 1 1 1 1 1 1 1 1 1 1 1 1
2 2 2 2 2 2 2 2 2 2 1 1 1 1 1 1 1 1 1 1 1 0 0 1 1 1 1 1 1 1 1 1 1 1 1 1 1 1 1 1 1 1 1
2 2 2 2 2 3 3 2 2 1 1 1 1 1 1 1 1 1 1 1 1 1 1 1 1 1 1 1 1 1 1 1 1 2 1 1 1 1 1 1 1 1 1
2 2 2 2 2 3 3 2 2 1 1 1 1 1 1 1 1 1 1 1 1 1 1 0 0 1 1 1 1 1 1 1 1 1 1 1 1 1 1 1 1 1 1
2 1 2 2 2 3 3 2 2 1 1 1 1 1 1 1 1 1 1 1 1 1 1 1 0 0 0 1 1 1 1 2 1 1 1 1 1 1 1 1 1 1 1
1 1 1 1 2 3 2 2 1 1 1 1 1 1 1 1 1 1 1 1 1 1 1 1 0 0 0 0 1 1 1 1 1 1 1 1 1 1 1 1 1 1 1
1 1 1 1 2 2 2 1 1 1 1 1 1 1 1 1 1 1 1 1 1 1 1 1 0 0 0 0 1 1 1 1 1 1 1 1 1 1 1 1 1 1 1
1 1 1 1 1 1 1 1 1 1 1 1 1 1 1 1 1 1 1 0 0 0 1 1 0 0 0 0 0 0 1 1 1 1 1 1 1 1 1 1 1 1 1
1 1 1 1 1 1 1 1 1 1 1 1 1 1 1 1 1 1 0 0 0 0 0 1 1 0 0 0 0 0 0 1 1 1 1 1 1 1 1 1 1 1 1
1 1 1 1 1 0 1 1 1 1 1 1 1 1 1 1 1 1 1 0 0 0 0 1 1 1 0 0 0 0 0 0 1 1 1 1 1 1 1 1 1 1 1
0 0 0 0 0 0 0 1 1 1 0 0 0 0 0 1 1 1 1 1 0 0 1 1 1 1 0 0 0 0 0 0 0 1 1 1 1 1 1 1 1 1 1
0 0 0 0 0 0 0 0 0 0 0 0 0 0 0 0 0 1 1 1 1 0 0 0 1 1 1 0 0 0 0 0 0 0 0 0 0 0 1 1 1 1 1
0 0 0 0 0 0 0 0 0 0 0 0 0 0 0 0 0 0 0 1 1 1 0 0 0 0 1 0 0 0 0 0 0 0 0 0 0 0 0 0 0 0 1
1 0 0 0 0 0 0 0 0 0 0 0 0 0 0 0 0 0 0 0 1 1 0 0 0 0 1 0 0 0 0 0 0 0 0 0 0 0 0 0 0 0 0
1 0 0 0 0 0 0 0 0 0 0 0 0 0 0 0 0 0 0 0 1 1 0 0 0 0 0 0 0 0 0 0 0 0 0 0 0 0 0 0 0 0 0
1 0 0 0 0 0 0 0 0 0 0 0 0 0 0 0 0 0 0 0 0 1 1 0 0 0 1 1 0 0 0 0 0 0 0 0 0 0 0 0 0 0 0
0 0 0 0 0 0 0 0 0 0 0 0 0 0 0 0 0 0 1 1 0 0 1 0 0 0 1 1 1 0 0 0 0 0 0 0 0 0 0 0 0 0 0
0 0 0 0 0 0 0 0 0 0 0 0 0 0 0 0 0 1 1 1 0 0 1 0 0 0 0 1 0 0 0 0 0 0 0 0 0 0 0 0 0 0 0
0 0 0 0 0 0 0 0 0 0 0 0 0 0 0 0 0 0 1 1 1 0 0 0 0 0 0 0 0 0 0 0 0 0 0 0 0 0 0 0 0 0 0
0 0 0 0 0 0 0 0 0 0 0 0 0 0 0 0 0 0 0 0 0 0 0 0 0 0 0 0 0 0 0 0 0 0 0 1 1 0 0 0 0 0 0
0 0 0 0 0 0 0 0 0 0 0 0 0 0 0 0 0 0 0 0 0 0 0 0 0 0 0 0 0 0 0 0 0 0 0 1 0 0 0 0 0 0 0
0 0 0 0 0 0 0 0 0 0 0 0 0 0 0 0 0 0 0 0 0 0 0 0 0 0 0 0 0 0 0 0 0 0 0 0 0 0 0 0 0 0 0
0 0 0 0 0 0 0 0 0 0 0 0 0 0 0 0 0 0 0 0 0 0 0 0 0 0 0 0 0 0 0 0 0 0 0 0 0 0 0 0 0 0 0
0 0 0 0 0 0 0 0 0 0 0 0 0 0 0 0 0 0 0 0 0 0 0 0 0 0 0 0 0 0 0 0 0 0 0 0 0 0 0 0 0 0 0
0 0 0 0 0 0 0 0 0 0 0 0 0 0 0 0 0 0 0 0 0 0 0 0 0 0 0 0 0 0 0 0 0 0 0 0 0 0 0 0 0 0 0
Wind_Speed
2 2 2 2 2 2 2 3 3 3 4 4 4 4 5 5 5 4 2 4 6 8 9 10 10 10 11 11 11 11 11 11 12 11 11 12 13 13 12 12 12 12 12
2 2 2 2 2 2 2 3 3 3 4 3 4 5 5 5 5 6 4 4 6 8 10 10 11 11 11 11 12 12 12 12 12 12 12 12 14 14 14 14 13 13 13
3 3 3 2 2 2 3 3 3 3 3 4 5 5 5 5 5 6 5 5 5 7 9 11 11 12 12 12 12 12 12 12 13 13 13 12 14 15 15 15 15 14 14
4 3 3 3 3 2 3 2 3 3 3 4 4 4 4 4 7 6 5 5 5 5 7 10 11 12 12 13 13 13 13 13 13 14 14 14 13 14 15 15 16 16 16
4 4 3 3 3 3 2 2 3 3 3 4 4 4 5 5 6 6 7 7 6 6 6 6 9 11 12 13 13 13 13 14 14 14 15 15 15 15 16 15 15 16 16
4 4 3 4 3 3 3 3 3 3 4 4 4 5 5 5 5 6 6 6 6 7 7 7 6 7 10 12 13 14 14 14 15 15 15 15 16 16 16 17 16 16 17
4 4 3 4 3 3 3 4 3 4 4 3 3 4 5 6 6 5 5 6 6 7 7 7 6 6 6 10 12 14 15 15 15 15 15 16 16 17 17 17 17 17 17
4 4 4 4 4 3 4 4 4 3 3 3 3 4 4 4 5 5 6 6 7 6 7 8 8 8 7 6 7 11 13 15 16 15 15 16 16 17 17 16 17 18 19
4 4 5 4 4 4 4 4 4 5 4 4 4 4 4 5 4 5 6 6 6 6 7 7 9 9 9 7 7 8 11 14 15 16 16 15 16 17 17 17 16 18 18
3 4 4 5 4 4 5 5 5 5 5 4 4 5 6 5 5 4 4 6 7 8 8 7 7 8 9 7 8 10 10 13 15 16 16 16 16 17 18 17 17 17 18
3 4 5 5 4 4 5 5 5 6 5 5 5 4 6 6 8 7 7 6 6 7 7 8 7 7 8 8 8 9 10 12 14 16 16 16 17 17 18 18 17 17 17
2 4 4 4 5 4 5 5 6 6 6 6 6 5 5 6 6 7 9 8 8 6 7 7 7 7 7 7 8 9 10 12 14 14 14 15 16 17 17 17 17 17 17
3 3 4 4 4 4 5 5 6 6 7 7 7 6 6 7 7 7 8 8 9 7 7 6 7 7 6 7 7 8 11 13 13 14 14 14 15 16 17 17 17 17 18
3 4 4 4 5 5 5 5 5 6 6 7 8 8 7 7 7 7 7 8 8 8 8 9 6 7 6 7 7 8 10 12 12 13 14 15 15 15 16 17 17 17 17
3 4 4 5 5 5 6 6 5 6 6 7 7 8 8 7 7 7 7 8 8 9 10 9 7 7 6 7 7 9 10 11 13 14 15 15 15 16 16 17 16 16 17
4 4 5 5 5 5 5 6 6 6 7 7 6 8 9 7 7 7 7 8 8 10 11 8 8 8 8 7 9 10 11 12 14 16 16 16 16 16 17 16 16 16 16
4 4 5 5 5 6 6 6 7 7 8 8 8 9 10 10 8 7 7 8 8 9 11 10 8 8 10 10 9 10 10 10 10 14 15 16 17 17 17 17 17 17 15
4 4 5 5 5 6 6 7 7 7 8 9 9 10 11 9 11 9 8 9 9 9 10 12 9 8 11 10 10 10 9 9 10 12 14 15 16 17 17 17 16 15 15
4 4 5 6 6 6 6 7 8 8 9 9 10 11 11 11 12 10 10 10 9 9 9 10 10 8 8 8 9 10 10 9 10 10 12 13 15 15 16 15 15 15 15
5 5 5 6 6 6 7 7 8 9 10 10 10 11 11 12 12 12 10 11 10 10 9 9 9 8 7 8 8 8 8 7 8 8 9 10 11 13 15 15 15 14 14
5 5 6 6 6 6 6 8 9 10 10 11 11 11 11 12 14 12 10 10 10 9 9 9 9 8 8 7 7 7 8 8 8 7 7 7 7 7 8 11 13 13 13
5 5 6 6 7 6 8 11 11 10 11 11 12 11 11 12 13 15 15 15 14 12 11 10 9 10 11 10 8 7 7 8 9 5 6 7 6 7 7 7 8 11 12
5 6 6 7 7 8 10 12 13 11 11 11 12 11 9 9 11 11 13 14 15 16 16 13 13 13 12 10 9 10 9 9 9 6 6 8 6 7 7 6 8 10 11
5 6 6 7 8 8 11 12 13 11 11 11 11 11 11 11 10 11 11 12 13 13 14 13 13 14 12 11 10 10 10 9 9 7 6 8 7 7 6 6 7 9 10
6 6 6 7 8 8 10 11 12 8 8 10 10 10 11 11 12 12 11 12 13 12 12 15 16 15 15 15 12 7 7 7 8 7 5 6 6 5 6 5 4 6 7
6 6 6 7 8 9 9 11 11 7 8 8 8 9 10 11 12 13 11 12 13 12 10 10 10 11 11 11 13 11 9 7 7 6 5 4 4 3 4 4 3 3 3
Wind_Direction
228 225 222 218 226 233 221 231 235 238 245 246 243 245 243 242 246 247 233 223 246 252 254 255 252 247 240 236 235 235 236 236 236 237 239 234 232 230 228 227 228 230 230
229 230 233 229 231 238 241 241 245 245 246 250 252 252 254 252 249 247 249 227 233 247 252 256 258 258 252 246 243 239 239 239 239 239 241 240 236 235 234 232 233 234 234
236 230 234 230 233 239 241 244 246 252 253 252 252 252 254 253 257 254 251 248 240 236 244 252 258 262 262 258 252 247 243 241 240 242 240 243 242 238 238 237 236 236 235
239 237 232 232 235 236 238 239 244 248 251 254 258 255 253 251 255 256 255 252 253 253 243 244 255 260 264 264 261 256 249 244 242 241 241 241 243 241 240 240 239 236 235
237 236 236 234 229 231 236 238 245 252 255 256 262 262 259 254 255 253 253 254 255 257 261 249 249 255 261 265 267 265 259 251 246 244 243 242 243 243 242 241 240 239 238
238 240 238 236 229 228 231 233 241 250 257 257 264 266 261 256 253 250 252 255 255 255 257 263 256 250 251 259 264 267 267 261 254 250 246 244 244 245 245 241 240 240 241
236 238 240 234 229 232 236 239 244 248 253 259 262 270 265 253 250 247 250 254 255 257 257 259 261 263 255 252 256 263 267 267 263 257 252 248 247 247 247 245 241 240 242
235 237 236 235 230 234 237 239 241 248 252 242 249 266 269 255 244 251 252 252 256 256 256 258 260 258 262 260 258 260 264 268 267 265 261 256 252 251 249 250 246 243 243
238 236 239 236 233 233 235 236 236 241 248 248 246 249 261 262 281 249 250 251 253 259 261 260 259 259 259 258 261 254 261 268 270 268 265 263 260 255 253 251 252 247 245
243 238 243 240 236 235 234 235 236 240 243 245 246 248 258 275 268 272 252 252 257 259 261 262 263 261 260 261 260 264 260 266 269 272 269 267 266 265 259 254 252 253 249
241 239 242 241 239 239 239 238 238 239 240 243 243 247 252 258 258 266 272 269 263 260 262 264 261 260 261 260 260 262 263 265 268 272 270 269 269 268 269 261 255 255 253
242 243 244 242 240 239 238 237 239 240 243 245 245 243 245 249 250 255 265 271 271 269 268 263 260 261 263 261 262 266 263 262 265 268 269 269 271 270 271 266 260 255 255
247 249 248 246 246 247 246 244 243 243 244 245 246 248 248 252 255 257 261 268 274 275 269 262 260 262 262 264 264 262 260 259 260 263 266 268 270 270 270 269 266 261 256
255 255 255 254 256 255 251 248 248 248 246 248 251 253 254 255 253 254 259 268 273 269 263 266 266 260 262 265 269 268 265 257 258 263 265 266 266 267 267 266 264 263 258
255 255 254 254 255 255 254 251 249 252 252 252 253 256 257 257 255 254 254 254 262 273 272 272 268 262 265 268 268 267 269 265 263 264 263 263 263 262 263 263 261 261 258
257 256 255 254 256 257 256 253 253 253 252 251 252 253 255 257 258 256 254 254 253 261 272 275 277 275 272 270 268 268 268 269 260 260 261 261 260 260 260 259 258 259 256
262 261 261 259 259 260 260 260 260 258 256 256 254 255 256 259 260 259 257 255 254 254 264 275 277 279 276 271 271 270 270 269 265 259 260 260 259 258 257 256 255 254 253
273 270 266 265 265 265 264 262 264 264 262 261 260 260 260 261 261 261 258 257 257 257 260 271 276 276 275 273 273 272 273 272 272 266 261 260 258 255 253 253 252 248 248
281 277 271 269 268 268 267 265 264 265 264 264 264 262 262 262 262 261 260 259 259 260 261 264 272 275 277 275 275 274 274 275 277 274 265 261 258 255 255 252 249 245 243
284 280 276 274 272 270 269 269 268 267 266 265 264 264 263 261 261 263 262 261 261 261 260 262 266 271 275 277 273 274 278 279 281 282 273 269 264 259 255 253 249 242 240
287 285 284 281 279 276 274 276 274 271 270 269 267 264 262 261 262 261 262 262 261 260 259 260 264 268 269 272 268 274 276 283 283 280 278 274 270 264 257 250 243 238 237
298 296 292 288 287 286 294 289 286 279 275 272 271 269 266 260 260 260 260 262 261 259 259 259 262 261 264 267 272 271 272 277 281 273 273 278 276 271 268 260 245 234 231
302 298 293 292 289 292 297 296 295 286 279 275 271 269 266 263 262 262 261 261 260 258 255 256 260 261 264 263 264 267 265 269 273 275 276 276 275 271 269 264 249 236 232
299 298 299 296 293 295 300 301 301 288 281 278 274 270 267 266 261 263 266 265 263 260 257 254 256 260 263 262 257 260 264 273 280 274 265 270 273 274 279 272 258 243 235
302 302 302 300 297 299 305 307 305 293 286 285 281 277 271 267 268 268 266 266 267 266 262 258 260 263 263 262 258 259 257 259 272 275 265 261 269 281 285 278 263 248 243
301 303 301 302 302 303 309 310 308 297 295 294 289 283 271 267 271 270 266 266 266 267 271 271 267 262 258 253 248 244 243 244 260 267 254 252 264 278 280 275 278 273 246